Simultaneous Nadir Overpasses (SNOs) Predictions

Prediction of SNOs between METOP-B and TERRA Satellite Orbit:

Table of predicted SNOs for the next 14.0 days since TLE Epoch: 10/30/2021
Index Date (METOP-B) Time (METOP-B) Lat,Lon (METOP-B) SZA (METOP-B ) Date (TERRA) Time (TERRA) Lat,Lon (TERRA) SZA (TERRA ) Distance(km) Time Diff (sec)
1 11/01/2021 09:34:13 -81.25, -99.55 81.41 11/01/2021 09:35:01 -81.25, -99.44 81.37 1.92 48
2 11/01/2021 10:24:52 81.26, 68.29 98.67 11/01/2021 10:24:27 81.25, 68.28 98.66 0.35 25
3 11/04/2021 05:08:36 -81.24, -33.28 80.55 11/04/2021 05:09:14 -81.24, -33.16 80.52 2.04 38
4 11/04/2021 05:59:13 81.26, 134.94 99.58 11/04/2021 05:58:38 81.27, 134.91 99.56 0.62 35
5 11/07/2021 00:42:57 -81.25, 33.35 79.68 11/07/2021 00:43:25 -81.25, 33.41 79.66 1.04 28
6 11/07/2021 01:33:36 81.26,-158.83 100.39 11/07/2021 01:32:51 81.25,-158.91 100.36 1.70 45
7 11/09/2021 20:17:19 -81.25, 99.95 78.86 11/09/2021 20:17:37 -81.25, 99.90 78.86 0.84 18
8 11/09/2021 21:07:59 81.25, -92.62 101.17 11/09/2021 21:07:03 81.25, -92.45 101.16 2.98 56
9 11/12/2021 15:51:42 -81.25, 166.13 78.13 11/12/2021 15:51:49 -81.25, 166.30 78.10 2.96 7



Historial Predications of SNOs between METOP-B and TERRA
